Other Public Products
Issued by NWS Grand Forks, ND

Home | Current Version | Previous Version | Graphics & Text | Print | Product List | Glossary On
Versions: 1 2 3 4 5 6 7 8 9 10 11 12 13 14 15 16 17 18 19 20 21 22 23 24 25 26 27 28 29 30 31 32 33 34 35 36 37 38 39 40 41 42 43 44 45 46 47 48 49 50
000
FPUS83 KFGF 041910
OPUFGF
PRAIRIE TO PINES WEATHER ROUNDUP
NATIONAL WEATHER SERVICE EASTERN NORTH DAKOTA/GRAND FORKS ND
100 PM CST WED MAR 04 2015

 **SATELLITE DATA USED TO AUGMENT SKY COVER AT AUTOMATED STATIONS**
 *****  WEATHER ACROSS EASTERN NORTH DAKOTA  *****

CITY           SKY/WX    TMP DP  RH WIND       PRES   REMARKS
GRAND FORKS    NOT AVBL
GRAND FORKS AF MOSUNNY    2 -11  55 NW20G25   30.31R WCI -19
GRAND CITY NWS   N/A      3 N/A N/A NW15        N/A  WCI -15
BUXTON         NOT AVBL
DEVILS LAKE    NOT AVBL
FARGO          NOT AVBL
WAHPETON ARPT  MOCLDY     3 -13  47 NW16G24   30.33R WCI -16
$$

 *****  WEATHER ACROSS CENTRAL AND WESTERN NORTH DAKOTA  *****

CITY           SKY/WX    TMP DP  RH WIND       PRES   REMARKS
JAMESTOWN      CLOUDY    -1 -12  59 NW17      30.30R WCI -22
BISMARCK       NOT AVBL
MINOT          NOT AVBL
MINOT AFB      SUNNY     -3 -12  65 NW23      30.32R WCI -27
GARRISON         N/A     -4 -14  62 NW17      30.33R WCI -26
WILLISTON      NOT AVBL
DICKINSON      SUNNY      7 -10  46 NW13      30.23F WCI  -9
HETTINGER      NOT AVBL
$$

 *****  OTHER OBSERVATIONS NORTHEAST NORTH DAKOTA  *****

CITY           SKY/WX    TMP DP  RH WIND       PRES   REMARKS
WALHALLA         N/A      0  -9  65 NW14G23   30.32R WCI -19
LANGDON        NOT AVBL
CAVALIER       MOCLDY     0  -9  65 N14G20    30.32R HAZE    WCI -19
GRAFTON        NOT AVBL
CANDO          FAIR      -2 -11  65 NW16      30.30R WCI -23
FORT TOTTEN      N/A      0 -15  48 NW9       29.95S WCI -15
ROLLA          FAIR      -2 -13  60 NW22      30.25R WCI -26
RUGBY          FAIR      -6 -13  71 NW17      30.32R WCI -28
 ***** THE ABOVE OBSERVATIONS ARE NON NWS ARE NOT QUALITY
        CONTROLLED AND MAY MIS-REPORT RAIN FOR SNOW...
$$

 *****  OTHER OBSERVATIONS SOUTHEAST NORTH DAKOTA *****

CITY           SKY/WX    TMP DP  RH WIND       PRES   REMARKS
COOPERSTOWN    NOT AVBL
VALLEY CITY    FLURRIES   0  -9  65 NW20      30.29S WCI -22
OAKES          NOT AVBL
GWINNER        MOCLDY     5  -8  56 NW20      30.33R WCI -15
SHEYENNE NWR     N/A      3 -13  48 NW10      29.95S WCI -12
BUFFALO        NOT AVBL
WYNDMERE       NOT AVBL
 ***** THE ABOVE OBSERVATIONS ARE NON NWS ARE NOT QUALITY
       CONTROLLED AND MAY MIS-REPORT RAIN FOR SNOW...
$$

  *****  WEATHER ACROSS NORTHERN MINNESOTA  *****

CITY           SKY/WX    TMP DP  RH WIND       PRES   REMARKS
FLAG ISLAND    NOT AVBL
WARROAD        NOT AVBL
ROSEAU         NOT AVBL
HALLOCK        NOT AVBL
THF RVR FALLS  NOT AVBL
HALSTAD        NOT AVBL
FOSSTON        NOT AVBL
BAUDETTE       NOT AVBL
WASKISH        NOT AVBL
CROOKSTON      NOT AVBL
$$
  *****  WEATHER ACROSS CENTRAL AND WEST MINNESOTA  *****

CITY           SKY/WX    TMP DP  RH WIND       PRES   REMARKS
BEMIDJI        NOT AVBL
PARK RAPIDS    NOT AVBL
WADENA         NOT AVBL
DETROIT LAKES  NOT AVBL
MOORHEAD       NOT AVBL
FERGUS FALLS   NOT AVBL
ELBOW LAKE     NOT AVBL
MORRIS MN      NOT AVBL
STAPLES        NOT AVBL
WHEATON        NOT AVBL
$$
  *****  WEATHER ELSEWHERE ACROSS MINNESOTA  *****

CITY           SKY/WX    TMP DP  RH WIND       PRES   REMARKS
DULUTH         CLOUDY     1 -13  51 NW21G28   30.08R WCI -21
INTRNTL FALLS  NOT AVBL
ELY            NOT AVBL
CLOQUET        NOT AVBL
BRAINERD       NOT AVBL
HIBBING        NOT AVBL
ALEXANDRIA     NOT AVBL
SAINT CLOUD    NOT AVBL
MINNEAPOLIS    NOT AVBL
$$

  *****  WEATHER ACROSS SOUTH DAKOTA  *****

CITY           SKY/WX    TMP DP  RH WIND       PRES   REMARKS
SIOUX FALLS    PTSUNNY   11  -2  56 NW20      30.29R WCI  -7
BROOKINGS      NOT AVBL
WATERTOWN      NOT AVBL
HURON          NOT AVBL
SISSETON       NOT AVBL
ABERDEEN       NOT AVBL
MITCHELL       NOT AVBL
PIERRE         NOT AVBL
MOBRIDGE       NOT AVBL
RAPID CITY     NOT AVBL
$$

  *****  SOME WEATHER IN NEARBY STATES *****

CITY           SKY/WX    TMP DP  RH WIND       PRES   REMARKS
GLASGOW MT     NOT AVBL
GREAT FALLS MT NOT AVBL
CHEYENNE WY    NOT AVBL
SCOTTSBLUFF NE NOT AVBL
OMAHA NE       NOT AVBL
DES MOINES IA  NOT AVBL
DAVENPORT IA   NOT AVBL
CHICAGO IL     PTSUNNY   19   6  57 NW13      30.14R WCI   6
EAU CLAIRE WI  PTSUNNY    9  -7  48 W20       30.18F WCI -10
LA CROSSE WI   NOT AVBL
$$

  *****  SOME NATIONAL WEATHER *****

CITY           SKY/WX    TMP DP  RH WIND       PRES   REMARKS
LA GUARDIA NY  CLOUDY    47  36  65 W10       29.84S
RALEIGH NC     PTSUNNY   68  58  70 SW18G30   29.92F
ATLANTA GA     NOT AVBL
NEW ORLEANS LA NOT AVBL
OKLAHOMA CITY  FRZ RAIN  27  19  74 N24G33    30.18R WCI  12
ALBUQUERQUE NM PTSUNNY   46  19  34 N8        29.97F
SALT LAKE CITY NOT AVBL
LOS ANGELES CA NOT AVBL
BOISE ID       NOT AVBL
SEATTLE WA     NOT AVBL
$$

*** WEATHER ACROSS MANITOBA...SASKATCHEWAN AND ONTARIO ***
                ***ONTARIO***

CITY           SKY/WX    TMP DP  RH WIND       PRES   REMARKS
GERALDTON      PTSUNNY    0 -13  55 W8        29.87R DRFTSNOWWCI -15
THUNDER BAY    PTSUNNY    3 -13  47 W18G25    30.03R WCI -17
SIOUX LOOKOUT  MOSUNNY   -4 -17  54 NW9       30.04R WCI -20
TORONTO        CLOUDY    30  21  69 NW16      29.88R WCI  19
BIG TROUT LK   PTSUNNY   -4 -13  65 W15G22    29.98S WCI -25
PICKLE LAKE    SUNNY      1 -17  42 NW5       29.95R WCI  -8
DRYDEN         MOSUNNY   -2 -15  55 W12       30.06R WCI -20
KENORA         CRYSTALS  -2 -15  55 NW10      30.12R WCI -19
$$
                *** MANITOBA***

CITY           SKY/WX    TMP DP  RH WIND       PRES   REMARKS
BRANDON        SUNNY     -6 -15  65 NW15      30.31R WCI -27
DAUPHIN        SUNNY     -2 -13  60 W15       30.31F WCI -22
ISLAND LAKE    MOSUNNY   -4 -15  59 W12G17    30.12F WCI -22
PILOT MOUND    NOT AVBL
THE PAS        MOSUNNY   -2 -17  50 NW13      30.25F WCI -21
THOMPSON       SUNNY     -6 -20  49 W12G18    30.11F WCI -24
WINNIPEG       MOSUNNY   -2 -13  60 NW16      30.30R WCI -23
LYNN LAKE      SUNNY     -8 -20  54 W12G17    30.08F WCI -27
CHURCHILL      CRYSTALS -17 -26  63 W17       30.01F WCI -42
GILLAM         MOSUNNY  -11 -22  58 W12G18    30.06F WCI -31
$$
                ***SASKATCHEWAN***

CITY           SKY/WX    TMP DP  RH WIND       PRES   REMARKS
ESTEVAN        NOT AVBL
KINDERSLEY     MOSUNNY    1  -9  60 S13       30.18F WCI -16
LLOYDMINSTER   MOSUNNY    0 -11  60 S9        30.11F WCI -16
PRINCE ALBERT  MOSUNNY   -2 -17  50 SW8       30.27F WCI -17
REGINA         SUNNY     -9 -18  64 SW7       30.32S WCI -24


USA.gov is the U.S. government's official web portal to all federal, state and local government web resources and services.